Find Kompass

NORAD ID: 27002 Int'l Des: 2001-056 Owner: IZM/MAK Country: RU operational
LEOCIRCULARRETROGRADESSO

Current View

Loading 3D Globe...

About Kompass

Description loading...

Upcoming Passes

Passes for default location (London). Set your location on the main map for personalized predictions.

Altitude History

Loading altitude history...

Two-Line Element Set

1 27002U 01056B 26151.50139836 .00000016 00000-0 71005-4 0 9997
2 27002 99.7955 325.9855 0019511 174.7823 254.4767 13.70639957223959
Epoch: May 31, 2026 • Age: 10 hours

Current Status

Altitude 1017.1 km
Velocity 7.34 km/s
Sub-Earth Point -13.49°S, 107.23°E
Launch Date Dec 10, 2001
Age 24.4 years
Type other

Technical Details

Classification Payload
Mass 65.00 kg
Dry Mass 65.00 kg
Total Mass 65.00 kg
Length 0.80 m
Diameter 0.60 m
Span 1.20 m
Shape Trunc Tetrahedron + 4 Pan
Manufacturer MAK
Bus Type Shtil
Phase Status In Orbit
Owner/State IZM/MAK/RU

Most Searched